KAY1 EDXW-EDLW

Flight info

Callsign KAY1
Flight time 0h 49m
Altitude 32000
Route OLDIP1B OLDIP DCT BADOS DCT OMWEG Y348 MAWEQ Z718 OSN M170 HMM N853 DOMEG DOMEG2A
Aircraft A319/M-SDE3FGHIRWY/LB1

Departure

Time 2026-04-29 19:02
Airport Westerland Sylt Airport (EDXW)

Arrival

Time 2026-04-29 19:52
Airport Dortmund Airport (EDLW)
Time Latitude Longitude Altitude Speed Heading
2026-04-29 18:45 54.91386 8.33120 28 ft 0 kts 270°
2026-04-29 18:53 54.91386 8.33123 28 ft 0 kts 270°
2026-04-29 18:53 54.91386 8.33144 28 ft 2 kts 246°
2026-04-29 18:54 54.91395 8.33165 28 ft 2 kts 217°
2026-04-29 18:54 54.91407 8.33175 28 ft 1 kts 191°
2026-04-29 18:54 54.91414 8.33177 28 ft 1 kts 175°
2026-04-29 18:54 54.91419 8.33177 28 ft 0 kts 179°
2026-04-29 18:56 54.91397 8.33177 28 ft 7 kts 179°
2026-04-29 18:57 54.91328 8.33179 28 ft 11 kts 179°
2026-04-29 18:57 54.91241 8.33177 30 ft 15 kts 180°
2026-04-29 18:57 54.91138 8.33177 31 ft 14 kts 180°
2026-04-29 18:57 54.91034 8.33161 31 ft 15 kts 202°
2026-04-29 18:58 54.90932 8.33127 31 ft 15 kts 153°
2026-04-29 18:58 54.90830 8.33204 31 ft 16 kts 163°
2026-04-29 18:58 54.90714 8.33227 30 ft 17 kts 179°
2026-04-29 18:58 54.90591 8.33241 28 ft 18 kts 175°
2026-04-29 18:59 54.90465 8.33295 28 ft 18 kts 155°
2026-04-29 18:59 54.90354 8.33417 27 ft 19 kts 134°
2026-04-29 18:59 54.90278 8.33623 26 ft 20 kts 111°
2026-04-29 18:59 54.90251 8.33806 28 ft 15 kts 98°
2026-04-29 19:00 54.90236 8.34002 28 ft 15 kts 96°
2026-04-29 19:00 54.90238 8.34192 30 ft 15 kts 82°
2026-04-29 19:00 54.90259 8.34380 30 ft 16 kts 79°
2026-04-29 19:00 54.90279 8.34578 31 ft 18 kts 79°
2026-04-29 19:01 54.90301 8.34802 31 ft 19 kts 79°
2026-04-29 19:01 54.90328 8.35031 32 ft 19 kts 70°
2026-04-29 19:01 54.90391 8.35175 35 ft 12 kts 15°
2026-04-29 19:01 54.90427 8.35158 35 ft 0 kts 322°
2026-04-29 19:02 54.90492 8.35075 35 ft 44 kts 324°
2026-04-29 19:02 54.90761 8.34746 35 ft 96 kts 325°
2026-04-29 19:02 54.91816 8.33439 177 ft 167 kts 325°
2026-04-29 19:02 54.92767 8.32229 813 ft 173 kts 324°
2026-04-29 19:03 54.93714 8.31036 1731 ft 169 kts 326°
2026-04-29 19:03 54.94562 8.29997 2456 ft 172 kts 325°
2026-04-29 19:03 54.95610 8.28803 3017 ft 187 kts 335°
2026-04-29 19:03 54.96380 8.28478 3267 ft 199 kts 356°
2026-04-29 19:04 54.97393 8.28829 3636 ft 210 kts 21°
2026-04-29 19:04 54.98490 8.30519 3913 ft 221 kts 56°
2026-04-29 19:04 54.98804 8.33144 3914 ft 227 kts 97°
2026-04-29 19:04 54.98100 8.35562 3953 ft 230 kts 138°
2026-04-29 19:05 54.96677 8.36778 3985 ft 229 kts 168°
2026-04-29 19:05 54.95135 8.37345 3993 ft 228 kts 170°
2026-04-29 19:05 54.93552 8.37895 4112 ft 235 kts 169°
2026-04-29 19:05 54.91949 8.38495 4888 ft 237 kts 169°
2026-04-29 19:06 54.90367 8.39125 5917 ft 234 kts 169°
2026-04-29 19:06 54.88810 8.39761 6834 ft 235 kts 169°
2026-04-29 19:06 54.85660 8.41304 8474 ft 249 kts 158°
2026-04-29 19:07 54.84085 8.42893 9039 ft 270 kts 148°
2026-04-29 19:07 54.83567 8.43513 9221 ft 277 kts 147°
2026-04-29 19:07 54.80888 8.46887 10453 ft 293 kts 147°
2026-04-29 19:07 54.79245 8.48964 11284 ft 299 kts 147°
2026-04-29 19:08 54.77508 8.51128 11770 ft 316 kts 147°
2026-04-29 19:08 54.76635 8.52207 11974 ft 325 kts 147°
2026-04-29 19:08 54.74753 8.54525 12395 ft 343 kts 148°
2026-04-29 19:08 54.72779 8.56957 13067 ft 351 kts 148°
2026-04-29 19:09 54.70788 8.59408 13862 ft 354 kts 148°
2026-04-29 19:09 54.68778 8.61875 14612 ft 359 kts 149°
2026-04-29 19:09 54.66729 8.64382 15330 ft 363 kts 149°
2026-04-29 19:09 54.64675 8.66895 16021 ft 368 kts 150°
2026-04-29 19:10 54.62600 8.69595 16704 ft 374 kts 147°
2026-04-29 19:10 54.60621 8.72543 17349 ft 381 kts 143°
2026-04-29 19:10 54.58727 8.75759 17972 ft 387 kts 140°
2026-04-29 19:10 54.56826 8.79102 18575 ft 392 kts 140°
2026-04-29 19:11 54.54905 8.82484 19157 ft 397 kts 140°
2026-04-29 19:11 54.52959 8.85900 19722 ft 401 kts 141°
2026-04-29 19:11 54.50999 8.89330 20271 ft 406 kts 141°
2026-04-29 19:11 54.49159 8.92541 20773 ft 410 kts 141°
2026-04-29 19:12 54.48074 8.94431 21064 ft 412 kts 141°
2026-04-29 19:12 54.46037 8.97973 21596 ft 416 kts 141°
2026-04-29 19:12 54.44018 9.01479 22102 ft 420 kts 141°
2026-04-29 19:12 54.43338 9.02658 22268 ft 422 kts 141°
2026-04-29 19:13 54.39845 9.08595 23074 ft 424 kts 147°
2026-04-29 19:13 54.37371 9.11153 23512 ft 411 kts 166°
2026-04-29 19:13 54.34634 9.12148 23979 ft 397 kts 185°
2026-04-29 19:13 54.31951 9.11627 24445 ft 386 kts 200°
2026-04-29 19:14 54.29335 9.10532 24923 ft 389 kts 201°
2026-04-29 19:14 54.26703 9.09406 25365 ft 393 kts 201°
2026-04-29 19:14 54.24054 9.08284 25791 ft 397 kts 201°
2026-04-29 19:14 54.21381 9.07164 26234 ft 400 kts 201°
2026-04-29 19:15 54.18665 9.06037 26680 ft 403 kts 201°
2026-04-29 19:15 54.15924 9.04907 27118 ft 406 kts 201°
2026-04-29 19:15 54.13176 9.03779 27546 ft 410 kts 201°
2026-04-29 19:15 54.10384 9.02637 27972 ft 413 kts 202°
2026-04-29 19:16 54.07584 9.01494 28394 ft 416 kts 202°
2026-04-29 19:16 54.04777 9.00351 28815 ft 419 kts 202°
2026-04-29 19:16 54.02907 8.99593 29159 ft 419 kts 202°
2026-04-29 19:16 53.99168 8.98083 29950 ft 417 kts 202°
2026-04-29 19:17 53.96350 8.96947 30534 ft 416 kts 203°
2026-04-29 19:17 53.93543 8.95815 31072 ft 416 kts 203°
2026-04-29 19:17 53.90739 8.94682 31527 ft 417 kts 204°
2026-04-29 19:17 53.87913 8.93543 31946 ft 420 kts 204°
2026-04-29 19:18 53.85066 8.92403 32327 ft 422 kts 204°
2026-04-29 19:18 53.79357 8.90120 32445 ft 423 kts 204°
2026-04-29 19:19 53.73647 8.87839 32448 ft 422 kts 204°
2026-04-29 19:19 53.67935 8.85558 32447 ft 422 kts 204°
2026-04-29 19:20 53.62242 8.83289 32446 ft 422 kts 204°
2026-04-29 19:20 53.56566 8.81033 32446 ft 422 kts 204°
2026-04-29 19:21 53.51659 8.79088 32446 ft 422 kts 204°
2026-04-29 19:21 53.45958 8.76835 32446 ft 421 kts 204°
2026-04-29 19:22 53.40267 8.74591 32446 ft 421 kts 204°
2026-04-29 19:22 53.34592 8.72359 32446 ft 421 kts 204°
2026-04-29 19:23 53.28882 8.70120 32446 ft 421 kts 204°
2026-04-29 19:23 53.23182 8.67891 32446 ft 421 kts 204°
2026-04-29 19:24 53.17504 8.65677 32446 ft 421 kts 204°
2026-04-29 19:24 53.11785 8.63453 32446 ft 421 kts 204°
2026-04-29 19:25 53.06070 8.61246 32447 ft 421 kts 205°
2026-04-29 19:25 53.00364 8.59050 32447 ft 420 kts 205°
2026-04-29 19:26 52.94666 8.56856 32447 ft 419 kts 206°
2026-04-29 19:26 52.89014 8.54676 32446 ft 419 kts 206°
2026-04-29 19:27 52.83334 8.52512 32446 ft 419 kts 206°
2026-04-29 19:27 52.77671 8.50356 32446 ft 419 kts 206°
2026-04-29 19:28 52.72364 8.48351 31784 ft 403 kts 206°
2026-04-29 19:28 52.69665 8.47327 30352 ft 405 kts 205°
2026-04-29 19:28 52.66936 8.46265 28772 ft 409 kts 205°
2026-04-29 19:28 52.64216 8.45211 27478 ft 413 kts 204°
2026-04-29 19:29 52.61396 8.44128 26523 ft 416 kts 203°
2026-04-29 19:29 52.58589 8.43069 25876 ft 411 kts 202°
2026-04-29 19:29 52.55843 8.42044 25430 ft 401 kts 202°
2026-04-29 19:29 52.53165 8.41040 24730 ft 399 kts 202°
2026-04-29 19:30 52.50457 8.40019 24125 ft 395 kts 202°
2026-04-29 19:30 52.47818 8.39025 23578 ft 389 kts 202°
2026-04-29 19:30 52.45207 8.38044 23049 ft 384 kts 202°
2026-04-29 19:30 52.42631 8.37075 22531 ft 379 kts 202°
2026-04-29 19:31 52.40060 8.36109 22013 ft 375 kts 201°
2026-04-29 19:31 52.37546 8.35164 21505 ft 371 kts 201°
2026-04-29 19:31 52.35059 8.34225 20994 ft 367 kts 201°
2026-04-29 19:31 52.32562 8.33276 20479 ft 365 kts 200°
2026-04-29 19:32 52.30102 8.32347 19973 ft 362 kts 200°
2026-04-29 19:32 52.27679 8.31438 19478 ft 360 kts 200°
2026-04-29 19:32 52.25251 8.30531 18982 ft 357 kts 200°
2026-04-29 19:32 52.22837 8.29603 18482 ft 353 kts 202°
2026-04-29 19:33 52.20597 8.28141 17984 ft 343 kts 213°
2026-04-29 19:33 52.18666 8.26035 17494 ft 335 kts 224°
2026-04-29 19:33 52.16996 8.23429 17008 ft 331 kts 229°
2026-04-29 19:33 52.15398 8.20730 16525 ft 329 kts 229°
2026-04-29 19:34 52.13822 8.18049 16046 ft 328 kts 229°
2026-04-29 19:34 52.12265 8.15404 15574 ft 327 kts 229°
2026-04-29 19:34 52.10686 8.12727 15096 ft 326 kts 229°
2026-04-29 19:34 52.09121 8.10078 14622 ft 325 kts 229°
2026-04-29 19:35 52.07561 8.07444 14150 ft 323 kts 229°
2026-04-29 19:35 52.06006 8.04821 13679 ft 322 kts 229°
2026-04-29 19:35 52.04461 8.02219 13211 ft 320 kts 228°
2026-04-29 19:35 52.02926 7.99635 12746 ft 318 kts 228°
2026-04-29 19:36 52.01404 7.97078 12287 ft 317 kts 228°
2026-04-29 19:36 51.99868 7.94501 11821 ft 315 kts 228°
2026-04-29 19:36 51.98356 7.91971 11347 ft 314 kts 229°
2026-04-29 19:36 51.96831 7.89426 10858 ft 313 kts 228°
2026-04-29 19:37 51.95177 7.87193 10439 ft 312 kts 219°
2026-04-29 19:37 51.94580 7.86509 10378 ft 308 kts 219°
2026-04-29 19:37 51.91771 7.83472 9780 ft 277 kts 217°
2026-04-29 19:37 51.90187 7.81797 9155 ft 271 kts 217°
2026-04-29 19:38 51.88617 7.80147 8367 ft 272 kts 217°
2026-04-29 19:38 51.87012 7.78465 7762 ft 275 kts 217°
2026-04-29 19:38 51.85415 7.76771 7455 ft 281 kts 217°
2026-04-29 19:38 51.83788 7.75028 7414 ft 280 kts 217°
2026-04-29 19:39 51.82141 7.73267 7409 ft 280 kts 217°
2026-04-29 19:39 51.80539 7.71562 7407 ft 278 kts 217°
2026-04-29 19:39 51.78931 7.69859 7403 ft 277 kts 217°
2026-04-29 19:39 51.77295 7.68130 7398 ft 278 kts 217°
2026-04-29 19:40 51.75679 7.66418 7394 ft 279 kts 217°
2026-04-29 19:40 51.74073 7.64724 7386 ft 278 kts 217°
2026-04-29 19:40 51.72440 7.62999 7205 ft 275 kts 217°
2026-04-29 19:40 51.70836 7.61297 6752 ft 278 kts 217°
2026-04-29 19:41 51.69237 7.59584 6352 ft 279 kts 217°
2026-04-29 19:41 51.67627 7.57842 5967 ft 279 kts 217°
2026-04-29 19:41 51.66027 7.56092 5590 ft 278 kts 217°
2026-04-29 19:41 51.64439 7.54335 5232 ft 277 kts 217°
2026-04-29 19:42 51.62881 7.52595 5061 ft 268 kts 217°
2026-04-29 19:42 51.62379 7.52033 5009 ft 266 kts 217°
2026-04-29 19:42 51.59906 7.49259 4750 ft 252 kts 217°
2026-04-29 19:42 51.58508 7.47685 4546 ft 241 kts 217°
2026-04-29 19:43 51.57144 7.46145 4406 ft 234 kts 217°
2026-04-29 19:43 51.55843 7.44672 4262 ft 227 kts 217°
2026-04-29 19:43 51.54571 7.43226 4116 ft 219 kts 217°
2026-04-29 19:43 51.53340 7.41822 3968 ft 213 kts 217°
2026-04-29 19:44 51.52160 7.40473 3829 ft 206 kts 217°
2026-04-29 19:44 51.51002 7.39142 3641 ft 202 kts 217°
2026-04-29 19:44 51.49876 7.37841 3406 ft 202 kts 217°
2026-04-29 19:44 51.48729 7.36503 3165 ft 201 kts 217°
2026-04-29 19:45 51.47619 7.35198 2934 ft 200 kts 217°
2026-04-29 19:45 51.46503 7.33871 2700 ft 199 kts 217°
2026-04-29 19:45 51.45381 7.32550 2521 ft 197 kts 209°
2026-04-29 19:45 51.44078 7.32023 2500 ft 195 kts 170°
2026-04-29 19:46 51.42878 7.32862 2499 ft 188 kts 130°
2026-04-29 19:46 51.42308 7.34638 2496 ft 180 kts 90°
2026-04-29 19:46 51.42584 7.36529 2502 ft 175 kts 58°
2026-04-29 19:46 51.43239 7.38173 2521 ft 172 kts 54°
2026-04-29 19:47 51.43867 7.39675 2550 ft 156 kts 54°
2026-04-29 19:47 51.44435 7.41038 2493 ft 138 kts 54°
2026-04-29 19:47 51.44941 7.42256 2494 ft 136 kts 54°
2026-04-29 19:47 51.45482 7.43508 2522 ft 136 kts 53°
2026-04-29 19:48 51.46003 7.44733 2509 ft 126 kts 55°
2026-04-29 19:48 51.46309 7.45519 2487 ft 123 kts 56°
2026-04-29 19:48 51.46882 7.47090 2280 ft 121 kts 58°
2026-04-29 19:48 51.47298 7.48271 2120 ft 121 kts 59°
2026-04-29 19:49 51.47709 7.49448 1960 ft 121 kts 59°
2026-04-29 19:49 51.48118 7.50623 1801 ft 120 kts 59°
2026-04-29 19:49 51.48533 7.51811 1640 ft 120 kts 59°
2026-04-29 19:49 51.48939 7.52974 1482 ft 120 kts 59°
2026-04-29 19:50 51.49346 7.54136 1324 ft 119 kts 59°
2026-04-29 19:50 51.49756 7.55311 1146 ft 119 kts 60°
2026-04-29 19:50 51.50164 7.56465 1011 ft 118 kts 60°
2026-04-29 19:50 51.50567 7.57614 865 ft 119 kts 60°
2026-04-29 19:51 51.50980 7.58763 702 ft 118 kts 59°
2026-04-29 19:51 51.51380 7.59908 547 ft 118 kts 61°
2026-04-29 19:51 51.51768 7.61033 418 ft 111 kts 60°
2026-04-29 19:51 51.52073 7.61906 404 ft 56 kts 61°
2026-04-29 19:52 51.52185 7.62237 400 ft 23 kts 75°
2026-04-29 19:52 51.52119 7.62371 400 ft 12 kts 150°
2026-04-29 19:52 51.52047 7.62371 403 ft 9 kts 226°
2026-04-29 19:52 51.52010 7.62274 406 ft 10 kts 239°
2026-04-29 19:53 51.51974 7.62172 409 ft 10 kts 239°
2026-04-29 19:53 51.51933 7.62056 411 ft 12 kts 239°
2026-04-29 19:53 51.51888 7.61921 413 ft 14 kts 240°
2026-04-29 19:53 51.51834 7.61771 415 ft 15 kts 240°
2026-04-29 19:54 51.51739 7.61500 421 ft 12 kts 238°
2026-04-29 19:54 51.51699 7.61388 423 ft 10 kts 240°
2026-04-29 19:54 51.51658 7.61273 426 ft 14 kts 240°
2026-04-29 19:55 51.51610 7.61134 428 ft 12 kts 243°
2026-04-29 19:55 51.51555 7.61053 431 ft 9 kts 176°
2026-04-29 19:55 51.51512 7.61075 434 ft 4 kts 154°
2026-04-29 19:55 51.51479 7.61113 436 ft 5 kts 139°
2026-04-29 19:56 51.51472 7.61123 437 ft 0 kts 141°